Year,Month,Day,Hour,Minute,Value (Times are PST for temperature in C)
2013,07,01,00,00,19.30
2013,07,01,00,01,19.20
2013,07,01,00,02,19.20
2013,07,01,00,03,19.20
2013,07,01,00,04,19.20
2013,07,01,00,05,19.20
2013,07,01,00,06,19.20
2013,07,01,00,07,19.20
2013,07,01,00,08,19.10
2013,07,01,00,09,19.10
2013,07,01,00,10,19.10
2013,07,01,00,11,19.10
2013,07,01,00,12,19.10
2013,07,01,00,13,19.10
2013,07,01,00,14,19.10
2013,07,01,00,15,19.10
2013,07,01,00,16,19.10
2013,07,01,00,17,19.10
2013,07,01,00,18,19.10
2013,07,01,00,19,19.00
2013,07,01,00,20,19.00
2013,07,01,00,21,19.00
2013,07,01,00,22,18.90
2013,07,01,00,23,18.90
2013,07,01,00,24,18.90
2013,07,01,00,25,18.90
2013,07,01,00,26,18.90
2013,07,01,00,27,18.80
2013,07,01,00,28,18.80
2013,07,01,00,29,18.80
2013,07,01,00,30,18.90
2013,07,01,00,31,18.90
2013,07,01,00,32,18.90
2013,07,01,00,33,18.90
2013,07,01,00,34,18.90
2013,07,01,00,35,18.90
2013,07,01,00,36,18.90
2013,07,01,00,37,18.90
2013,07,01,00,38,18.90
2013,07,01,00,39,18.90
2013,07,01,00,40,18.90
2013,07,01,00,41,18.90
2013,07,01,00,42,18.90
2013,07,01,00,43,18.90
2013,07,01,00,44,18.90
2013,07,01,00,45,18.90
2013,07,01,00,46,18.90
2013,07,01,00,47,18.90
2013,07,01,00,48,18.80
2013,07,01,00,49,18.80
2013,07,01,00,50,18.80
2013,07,01,00,51,18.80
2013,07,01,00,52,18.80
2013,07,01,00,53,18.80
2013,07,01,00,54,18.70
2013,07,01,00,55,18.70
2013,07,01,00,56,18.70
2013,07,01,00,57,18.70
2013,07,01,00,58,18.70
2013,07,01,00,59,18.60
2013,07,01,01,00,18.60
2013,07,01,01,01,18.60
2013,07,01,01,02,18.60
2013,07,01,01,03,18.60
2013,07,01,01,04,18.60
2013,07,01,01,05,18.60
2013,07,01,01,06,18.60
2013,07,01,01,07,18.50
2013,07,01,01,08,18.50
2013,07,01,01,09,18.50
2013,07,01,01,10,18.50
2013,07,01,01,11,18.50
2013,07,01,01,12,18.50
2013,07,01,01,13,18.50
2013,07,01,01,14,18.50
2013,07,01,01,15,18.50
2013,07,01,01,16,18.50
2013,07,01,01,17,18.50
2013,07,01,01,18,18.50
2013,07,01,01,19,18.50
2013,07,01,01,20,18.50
2013,07,01,01,21,18.50
2013,07,01,01,22,18.40
2013,07,01,01,23,18.40
2013,07,01,01,24,18.40
2013,07,01,01,25,18.40
2013,07,01,01,26,18.40
2013,07,01,01,27,18.40
2013,07,01,01,28,18.30
2013,07,01,01,29,18.30
2013,07,01,01,30,18.30
2013,07,01,01,31,18.30
2013,07,01,01,32,18.20
2013,07,01,01,33,18.20
2013,07,01,01,34,18.20
2013,07,01,01,35,18.20
2013,07,01,01,36,18.20
2013,07,01,01,37,18.20
2013,07,01,01,38,18.20
2013,07,01,01,39,18.20
2013,07,01,01,40,18.20
2013,07,01,01,41,18.20
2013,07,01,01,42,18.20
2013,07,01,01,43,18.20
2013,07,01,01,44,18.20
2013,07,01,01,45,18.20
2013,07,01,01,46,18.20
2013,07,01,01,47,18.20
2013,07,01,01,48,18.20
2013,07,01,01,49,18.20
2013,07,01,01,50,18.20
2013,07,01,01,51,18.20
2013,07,01,01,52,18.20
2013,07,01,01,53,18.20
2013,07,01,01,54,18.20
2013,07,01,01,55,18.20
2013,07,01,01,56,18.20
2013,07,01,01,57,18.10
2013,07,01,01,58,18.10
2013,07,01,01,59,18.10
2013,07,01,02,00,18.10
2013,07,01,02,01,18.10
2013,07,01,02,02,18.10
2013,07,01,02,03,18.10
2013,07,01,02,04,18.10
2013,07,01,02,05,18.10
2013,07,01,02,06,18.10
2013,07,01,02,07,18.10
2013,07,01,02,08,18.00
2013,07,01,02,09,18.00
2013,07,01,02,10,18.00
2013,07,01,02,11,17.90
2013,07,01,02,12,17.90
2013,07,01,02,13,17.90
2013,07,01,02,14,17.90
2013,07,01,02,15,17.90
2013,07,01,02,16,17.90
2013,07,01,02,17,17.90
2013,07,01,02,18,17.90
2013,07,01,02,19,17.90
2013,07,01,02,20,17.90
2013,07,01,02,21,17.90
2013,07,01,02,22,17.90
2013,07,01,02,23,17.90
2013,07,01,02,24,17.90
2013,07,01,02,25,17.80
2013,07,01,02,26,17.80
2013,07,01,02,27,17.80
2013,07,01,02,28,17.80
2013,07,01,02,29,17.80
2013,07,01,02,30,17.80
2013,07,01,02,31,17.80
2013,07,01,02,32,17.80
2013,07,01,02,33,17.80
2013,07,01,02,34,17.80
2013,07,01,02,35,17.80
2013,07,01,02,36,17.80
2013,07,01,02,37,17.80
2013,07,01,02,38,17.80
2013,07,01,02,39,17.80
2013,07,01,02,40,17.80
2013,07,01,02,41,17.80
2013,07,01,02,42,17.80
2013,07,01,02,43,17.80
2013,07,01,02,44,17.80
2013,07,01,02,45,17.80
2013,07,01,02,46,17.80
2013,07,01,02,47,17.70
2013,07,01,02,48,17.70
2013,07,01,02,49,17.70
2013,07,01,02,50,17.70
2013,07,01,02,51,17.70
2013,07,01,02,52,17.70
2013,07,01,02,53,17.70
2013,07,01,02,54,17.70
2013,07,01,02,55,17.70
2013,07,01,02,56,17.60
2013,07,01,02,57,17.60
2013,07,01,02,58,17.60
2013,07,01,02,59,17.60
2013,07,01,03,00,17.60
2013,07,01,03,01,17.60
2013,07,01,03,02,17.60
2013,07,01,03,03,17.60
2013,07,01,03,04,17.60
2013,07,01,03,05,17.60
2013,07,01,03,06,17.60
2013,07,01,03,07,17.60
2013,07,01,03,08,17.60
2013,07,01,03,09,17.60
2013,07,01,03,10,17.60
2013,07,01,03,11,17.60
2013,07,01,03,12,17.60
2013,07,01,03,13,17.60
2013,07,01,03,14,17.60
2013,07,01,03,15,17.60
2013,07,01,03,16,17.60
2013,07,01,03,17,17.60
2013,07,01,03,18,17.60
2013,07,01,03,19,17.60
2013,07,01,03,20,17.60
2013,07,01,03,21,17.60
2013,07,01,03,22,17.60
2013,07,01,03,23,17.60
2013,07,01,03,24,17.60
2013,07,01,03,25,17.60
2013,07,01,03,26,17.60
2013,07,01,03,27,17.60
2013,07,01,03,28,17.50
2013,07,01,03,29,17.50
2013,07,01,03,30,17.50
2013,07,01,03,31,17.50
2013,07,01,03,32,17.40
2013,07,01,03,33,17.40
2013,07,01,03,34,17.40
2013,07,01,03,35,17.40
2013,07,01,03,36,17.40
2013,07,01,03,37,17.40
2013,07,01,03,38,17.40
2013,07,01,03,39,17.30
2013,07,01,03,40,17.30
2013,07,01,03,41,17.30
2013,07,01,03,42,17.30
2013,07,01,03,43,17.30
2013,07,01,03,44,17.30
2013,07,01,03,45,17.30
2013,07,01,03,46,17.30
2013,07,01,03,47,17.30
2013,07,01,03,48,17.30
2013,07,01,03,49,17.30
2013,07,01,03,50,17.30
2013,07,01,03,51,17.30
2013,07,01,03,52,17.30
2013,07,01,03,53,17.30
2013,07,01,03,54,17.30
2013,07,01,03,55,17.30
2013,07,01,03,56,17.30
2013,07,01,03,57,17.20
2013,07,01,03,58,17.20
2013,07,01,03,59,17.20
2013,07,01,04,00,17.20
2013,07,01,04,01,17.20
2013,07,01,04,02,17.20
2013,07,01,04,03,17.20
2013,07,01,04,04,17.20
2013,07,01,04,05,17.20
2013,07,01,04,06,17.20
2013,07,01,04,07,17.20
2013,07,01,04,08,17.20
2013,07,01,04,09,17.20
2013,07,01,04,10,17.20
2013,07,01,04,11,17.20
2013,07,01,04,12,17.20
2013,07,01,04,13,17.20
2013,07,01,04,14,17.20
2013,07,01,04,15,17.20
2013,07,01,04,16,17.20
2013,07,01,04,17,17.20
2013,07,01,04,18,17.20
2013,07,01,04,19,17.20
2013,07,01,04,20,17.20
2013,07,01,04,21,17.20
2013,07,01,04,22,17.20
2013,07,01,04,23,17.20
2013,07,01,04,24,17.20
2013,07,01,04,25,17.20
2013,07,01,04,26,17.20
2013,07,01,04,27,17.20
2013,07,01,04,28,17.20
2013,07,01,04,29,17.10
2013,07,01,04,30,17.10
2013,07,01,04,31,17.10
2013,07,01,04,32,17.10
2013,07,01,04,33,17.10
2013,07,01,04,34,17.10
2013,07,01,04,35,17.10
2013,07,01,04,36,17.10
2013,07,01,04,37,17.10
2013,07,01,04,38,17.10
2013,07,01,04,39,17.10
2013,07,01,04,40,17.10
2013,07,01,04,41,17.10
2013,07,01,04,42,17.00
2013,07,01,04,43,17.00
2013,07,01,04,44,17.10
2013,07,01,04,45,17.10
2013,07,01,04,46,17.10
2013,07,01,04,47,17.10
2013,07,01,04,48,17.10
2013,07,01,04,49,17.10
2013,07,01,04,50,17.10
2013,07,01,04,51,17.10
2013,07,01,04,52,17.10
2013,07,01,04,53,17.10
2013,07,01,04,54,17.10
2013,07,01,04,55,17.10
2013,07,01,04,56,17.10
2013,07,01,04,57,17.10
2013,07,01,04,58,17.10
2013,07,01,04,59,17.10
2013,07,01,05,00,17.10
2013,07,01,05,01,17.10
2013,07,01,05,02,17.10
2013,07,01,05,03,17.00
2013,07,01,05,04,17.00
2013,07,01,05,05,17.00
2013,07,01,05,06,17.00
2013,07,01,05,07,17.00
2013,07,01,05,08,17.00
2013,07,01,05,09,17.00
2013,07,01,05,10,17.00
2013,07,01,05,11,17.00
2013,07,01,05,12,17.00
2013,07,01,05,13,17.00
2013,07,01,05,14,17.00
2013,07,01,05,15,16.90
2013,07,01,05,16,16.90
2013,07,01,05,17,16.90
2013,07,01,05,18,16.90
2013,07,01,05,19,16.90
2013,07,01,05,20,16.90
2013,07,01,05,21,16.90
2013,07,01,05,22,16.90
2013,07,01,05,23,16.90
2013,07,01,05,24,16.90
2013,07,01,05,25,16.90
2013,07,01,05,26,16.90
2013,07,01,05,27,16.90
2013,07,01,05,28,16.90
2013,07,01,05,29,16.90
2013,07,01,05,30,16.90
2013,07,01,05,31,16.90
2013,07,01,05,32,16.90
2013,07,01,05,33,16.90
2013,07,01,05,34,16.90
2013,07,01,05,35,17.00
2013,07,01,05,36,17.00
2013,07,01,05,37,17.00
2013,07,01,05,38,17.00
2013,07,01,05,39,17.10
2013,07,01,05,40,17.10
2013,07,01,05,41,17.10
2013,07,01,05,42,17.10
2013,07,01,05,43,17.10
2013,07,01,05,44,17.10
2013,07,01,05,45,17.10
2013,07,01,05,46,17.10
2013,07,01,05,47,17.10
2013,07,01,05,48,17.10
2013,07,01,05,49,17.10
2013,07,01,05,50,17.10
2013,07,01,05,51,17.10
2013,07,01,05,52,17.10
2013,07,01,05,53,17.10
2013,07,01,05,54,17.10
2013,07,01,05,55,17.10
2013,07,01,05,56,17.10
2013,07,01,05,57,17.10
2013,07,01,05,58,17.10
2013,07,01,05,59,17.20
2013,07,01,06,00,17.20
2013,07,01,06,01,17.20
2013,07,01,06,02,17.20
2013,07,01,06,03,17.20
2013,07,01,06,04,17.20
2013,07,01,06,05,17.20
2013,07,01,06,06,17.20
2013,07,01,06,07,17.20
2013,07,01,06,08,17.30
2013,07,01,06,09,17.30
2013,07,01,06,10,17.30
2013,07,01,06,11,17.30
2013,07,01,06,12,17.30
2013,07,01,06,13,17.30
2013,07,01,06,14,17.30
2013,07,01,06,15,17.30
2013,07,01,06,16,17.30
2013,07,01,06,17,17.30
2013,07,01,06,18,17.30
2013,07,01,06,19,17.30
2013,07,01,06,20,17.30
2013,07,01,06,21,17.30
2013,07,01,06,22,17.30
2013,07,01,06,23,17.30
2013,07,01,06,24,17.30
2013,07,01,06,25,17.30
2013,07,01,06,26,17.30
2013,07,01,06,27,17.30
2013,07,01,06,28,17.30
2013,07,01,06,29,17.30
2013,07,01,06,30,17.30
2013,07,01,06,31,17.30
2013,07,01,06,32,17.30
2013,07,01,06,33,17.30
2013,07,01,06,34,17.30
2013,07,01,06,35,17.30
2013,07,01,06,36,17.30
2013,07,01,06,37,17.30
2013,07,01,06,38,17.40
2013,07,01,06,39,17.40
2013,07,01,06,40,17.40
2013,07,01,06,41,17.50
2013,07,01,06,42,17.60
2013,07,01,06,43,17.60
2013,07,01,06,44,17.70
2013,07,01,06,45,17.80
2013,07,01,06,46,17.90
2013,07,01,06,47,18.00
2013,07,01,06,48,18.00
2013,07,01,06,49,18.10
2013,07,01,06,50,18.20
2013,07,01,06,51,18.20
2013,07,01,06,52,18.30
2013,07,01,06,53,18.40
2013,07,01,06,54,18.50
2013,07,01,06,55,18.60
2013,07,01,06,56,18.60
2013,07,01,06,57,18.70
2013,07,01,06,58,18.80
2013,07,01,06,59,18.90
2013,07,01,07,00,18.90
2013,07,01,07,01,19.00
2013,07,01,07,02,19.10
2013,07,01,07,03,19.20
2013,07,01,07,04,19.30
2013,07,01,07,05,19.40
2013,07,01,07,06,19.40
2013,07,01,07,07,19.40
2013,07,01,07,08,19.50
2013,07,01,07,09,19.50
2013,07,01,07,10,19.70
2013,07,01,07,11,19.80
2013,07,01,07,12,19.80
2013,07,01,07,13,19.90
2013,07,01,07,14,20.00
2013,07,01,07,15,20.20
2013,07,01,07,16,20.30
2013,07,01,07,17,20.40
2013,07,01,07,18,20.40
2013,07,01,07,19,20.50
2013,07,01,07,20,20.40
2013,07,01,07,21,20.20
2013,07,01,07,22,20.10
2013,07,01,07,23,19.90
2013,07,01,07,24,19.80
2013,07,01,07,25,19.70
2013,07,01,07,26,19.60
2013,07,01,07,27,19.60
2013,07,01,07,28,19.60
2013,07,01,07,29,19.60
2013,07,01,07,30,19.60
2013,07,01,07,31,19.60
2013,07,01,07,32,19.70
2013,07,01,07,33,19.80
2013,07,01,07,34,19.80
2013,07,01,07,35,19.80
2013,07,01,07,36,19.90
2013,07,01,07,37,20.00
2013,07,01,07,38,20.00
2013,07,01,07,39,20.20
2013,07,01,07,40,20.30
2013,07,01,07,41,20.30
2013,07,01,07,42,20.30
2013,07,01,07,43,20.40
2013,07,01,07,44,20.50
2013,07,01,07,45,20.50
2013,07,01,07,46,20.70
2013,07,01,07,47,20.80
2013,07,01,07,48,20.90
2013,07,01,07,49,20.90
2013,07,01,07,50,21.00
2013,07,01,07,51,21.10
2013,07,01,07,52,21.20
2013,07,01,07,53,21.30
2013,07,01,07,54,21.40
2013,07,01,07,55,21.50
2013,07,01,07,56,21.60
2013,07,01,07,57,21.70
2013,07,01,07,58,21.80
2013,07,01,07,59,21.90
2013,07,01,08,00,22.10
2013,07,01,08,01,22.30
2013,07,01,08,02,22.30
2013,07,01,08,03,22.40
2013,07,01,08,04,22.50
2013,07,01,08,05,22.60
2013,07,01,08,06,22.70
2013,07,01,08,07,22.70
2013,07,01,08,08,22.80
2013,07,01,08,09,22.90
2013,07,01,08,10,23.00
2013,07,01,08,11,23.00
2013,07,01,08,12,23.10
2013,07,01,08,13,23.20
2013,07,01,08,14,23.20
2013,07,01,08,15,23.30
2013,07,01,08,16,23.30
2013,07,01,08,17,23.30
2013,07,01,08,18,23.40
2013,07,01,08,19,23.40
2013,07,01,08,20,23.40
2013,07,01,08,21,23.50
2013,07,01,08,22,23.60
2013,07,01,08,23,23.60
2013,07,01,08,24,23.60
2013,07,01,08,25,23.70
2013,07,01,08,26,23.80
2013,07,01,08,27,23.80
2013,07,01,08,28,23.90
2013,07,01,08,29,24.00
2013,07,01,08,30,24.00
2013,07,01,08,31,24.00
2013,07,01,08,32,24.00
2013,07,01,08,33,24.10
2013,07,01,08,34,24.10
2013,07,01,08,35,24.10
2013,07,01,08,36,24.20
2013,07,01,08,37,24.20
2013,07,01,08,38,24.20
2013,07,01,08,39,24.20
2013,07,01,08,40,24.20
2013,07,01,08,41,24.20
2013,07,01,08,42,24.20
2013,07,01,08,43,24.20
2013,07,01,08,44,24.10
2013,07,01,08,45,24.10
2013,07,01,08,46,24.10
2013,07,01,08,47,24.10
2013,07,01,08,48,24.10
2013,07,01,08,49,24.10
2013,07,01,08,50,24.20
2013,07,01,08,51,24.20
2013,07,01,08,52,24.20
2013,07,01,08,53,24.20
2013,07,01,08,54,24.20
2013,07,01,08,55,24.20
2013,07,01,08,56,24.20
2013,07,01,08,57,24.20
2013,07,01,08,58,24.30
2013,07,01,08,59,24.30
2013,07,01,09,00,24.40
2013,07,01,09,01,24.50
2013,07,01,09,02,24.60
2013,07,01,09,03,24.50
2013,07,01,09,04,24.40
2013,07,01,09,05,24.40
2013,07,01,09,06,24.40
2013,07,01,09,07,24.40
2013,07,01,09,08,24.30
2013,07,01,09,09,24.30
2013,07,01,09,10,24.30
2013,07,01,09,11,24.40
2013,07,01,09,12,24.40
2013,07,01,09,13,24.40
2013,07,01,09,14,24.40
2013,07,01,09,15,24.50
2013,07,01,09,16,24.50
2013,07,01,09,17,24.50
2013,07,01,09,18,24.60
2013,07,01,09,19,24.50
2013,07,01,09,20,24.50
2013,07,01,09,21,24.50
2013,07,01,09,22,24.50
2013,07,01,09,23,24.50
2013,07,01,09,24,24.50
2013,07,01,09,25,24.60
2013,07,01,09,26,24.60
2013,07,01,09,27,24.60
2013,07,01,09,28,24.70
2013,07,01,09,29,24.70
2013,07,01,09,30,24.80
2013,07,01,09,31,24.80
2013,07,01,09,32,24.80
2013,07,01,09,33,24.80
2013,07,01,09,34,24.80
2013,07,01,09,35,24.80
2013,07,01,09,36,24.80
2013,07,01,09,37,24.80
2013,07,01,09,38,24.80
2013,07,01,09,39,24.80
2013,07,01,09,40,24.80
2013,07,01,09,41,24.80
2013,07,01,09,42,24.80
2013,07,01,09,43,24.80
2013,07,01,09,44,24.80
2013,07,01,09,45,24.80
2013,07,01,09,46,24.90
2013,07,01,09,47,25.00
2013,07,01,09,48,25.10
2013,07,01,09,49,25.20
2013,07,01,09,50,25.20
2013,07,01,09,51,25.20
2013,07,01,09,52,25.20
2013,07,01,09,53,25.30
2013,07,01,09,54,25.30
2013,07,01,09,55,25.30
2013,07,01,09,56,25.30
2013,07,01,09,57,25.30
2013,07,01,09,58,25.30
2013,07,01,09,59,25.40
2013,07,01,10,00,25.40
2013,07,01,10,01,25.40
2013,07,01,10,02,25.50
2013,07,01,10,03,25.60
2013,07,01,10,04,25.60
2013,07,01,10,05,25.60
2013,07,01,10,06,25.70
2013,07,01,10,07,25.70
2013,07,01,10,08,25.70
2013,07,01,10,09,25.60
2013,07,01,10,10,25.60
2013,07,01,10,11,25.40
2013,07,01,10,12,25.30
2013,07,01,10,13,25.20
2013,07,01,10,14,25.20
2013,07,01,10,15,25.20
2013,07,01,10,16,25.20
2013,07,01,10,17,25.30
2013,07,01,10,18,25.40
2013,07,01,10,19,25.40
2013,07,01,10,20,25.50
2013,07,01,10,21,25.60
2013,07,01,10,22,25.60
2013,07,01,10,23,25.60
2013,07,01,10,24,25.70
2013,07,01,10,25,25.70
2013,07,01,10,26,25.80
2013,07,01,10,27,25.80
2013,07,01,10,28,25.90
2013,07,01,10,29,25.90
2013,07,01,10,30,25.90
2013,07,01,10,31,26.00
2013,07,01,10,32,25.90
2013,07,01,10,33,26.00
2013,07,01,10,34,26.10
2013,07,01,10,35,26.20
2013,07,01,10,36,26.20
2013,07,01,10,37,26.20
2013,07,01,10,38,26.20
2013,07,01,10,39,26.20
2013,07,01,10,40,26.30
2013,07,01,10,41,26.30
2013,07,01,10,42,26.30
2013,07,01,10,43,26.30
2013,07,01,10,44,26.30
2013,07,01,10,45,26.20
2013,07,01,10,46,26.10
2013,07,01,10,47,26.10
2013,07,01,10,48,26.00
2013,07,01,10,49,25.90
2013,07,01,10,50,25.80
2013,07,01,10,51,25.80
2013,07,01,10,52,25.70
2013,07,01,10,53,25.70
2013,07,01,10,54,25.70
2013,07,01,10,55,25.70
2013,07,01,10,56,25.70
2013,07,01,10,57,25.80
2013,07,01,10,58,25.90
2013,07,01,10,59,26.00
2013,07,01,11,00,26.20
2013,07,01,11,01,26.30
2013,07,01,11,02,26.40
2013,07,01,11,03,26.60
2013,07,01,11,04,26.80
2013,07,01,11,05,26.90
2013,07,01,11,06,27.00
2013,07,01,11,07,27.20
2013,07,01,11,08,27.20
2013,07,01,11,09,27.40
2013,07,01,11,10,27.60
2013,07,01,11,11,27.60
2013,07,01,11,12,27.60
2013,07,01,11,13,27.50
2013,07,01,11,14,27.30
2013,07,01,11,15,27.20
2013,07,01,11,16,27.20
2013,07,01,11,17,27.00
2013,07,01,11,18,26.90
2013,07,01,11,19,26.70
2013,07,01,11,20,26.60
2013,07,01,11,21,26.50
2013,07,01,11,22,26.40
2013,07,01,11,23,26.30
2013,07,01,11,24,26.30
2013,07,01,11,25,26.20
2013,07,01,11,26,26.10
2013,07,01,11,27,26.00
2013,07,01,11,28,25.90
2013,07,01,11,29,25.80
2013,07,01,11,30,25.60
2013,07,01,11,31,25.30
2013,07,01,11,32,25.10
2013,07,01,11,33,24.80
2013,07,01,11,34,24.40
2013,07,01,11,35,24.20
2013,07,01,11,36,23.90
2013,07,01,11,37,23.80
2013,07,01,11,38,23.60
2013,07,01,11,39,23.50
2013,07,01,11,40,23.40
2013,07,01,11,41,23.40
2013,07,01,11,42,23.40
2013,07,01,11,43,23.40
2013,07,01,11,44,23.40
2013,07,01,11,45,23.50
2013,07,01,11,46,23.60
2013,07,01,11,47,23.70
2013,07,01,11,48,23.80
2013,07,01,11,49,24.00
2013,07,01,11,50,24.20
2013,07,01,11,51,24.30
2013,07,01,11,52,24.30
2013,07,01,11,53,24.50
2013,07,01,11,54,24.60
2013,07,01,11,55,24.60
2013,07,01,11,56,24.70
2013,07,01,11,57,24.70
2013,07,01,11,58,24.80
2013,07,01,11,59,24.90
2013,07,01,12,00,25.00
2013,07,01,12,01,25.10
2013,07,01,12,02,25.20
2013,07,01,12,03,25.40
2013,07,01,12,04,25.50
2013,07,01,12,05,25.70
2013,07,01,12,06,25.80
2013,07,01,12,07,25.90
2013,07,01,12,08,25.90
2013,07,01,12,09,25.90
2013,07,01,12,10,25.90
2013,07,01,12,11,25.90
2013,07,01,12,12,25.90
2013,07,01,12,13,26.00
2013,07,01,12,14,26.00
2013,07,01,12,15,26.10
2013,07,01,12,16,26.20
2013,07,01,12,17,26.20
2013,07,01,12,18,26.20
2013,07,01,12,19,26.10
2013,07,01,12,20,26.10
2013,07,01,12,21,26.10
2013,07,01,12,22,26.00
2013,07,01,12,23,25.90
2013,07,01,12,24,25.90
2013,07,01,12,25,25.90
2013,07,01,12,26,26.00
2013,07,01,12,27,25.90
2013,07,01,12,28,25.90
2013,07,01,12,29,25.90
2013,07,01,12,30,25.90
2013,07,01,12,31,25.90
2013,07,01,12,32,25.90
2013,07,01,12,33,25.90
2013,07,01,12,34,25.90
2013,07,01,12,35,25.90
2013,07,01,12,36,25.90
2013,07,01,12,37,25.90
2013,07,01,12,38,25.90
2013,07,01,12,39,25.90
2013,07,01,12,40,26.00
2013,07,01,12,41,26.00
2013,07,01,12,42,26.10
2013,07,01,12,43,26.10
2013,07,01,12,44,26.10
2013,07,01,12,45,26.10
2013,07,01,12,46,26.10
2013,07,01,12,47,26.10
2013,07,01,12,48,26.10
2013,07,01,12,49,26.10
2013,07,01,12,50,26.10
2013,07,01,12,51,26.10
2013,07,01,12,52,26.10
2013,07,01,12,53,26.10
2013,07,01,12,54,26.00
2013,07,01,12,55,25.90
2013,07,01,12,56,25.90
2013,07,01,12,57,25.90
2013,07,01,12,58,25.90
2013,07,01,12,59,25.90
2013,07,01,13,00,25.90
2013,07,01,13,01,25.90
2013,07,01,13,02,25.80
2013,07,01,13,03,25.80
2013,07,01,13,04,25.80
2013,07,01,13,05,25.90
2013,07,01,13,06,25.90
2013,07,01,13,07,26.10
2013,07,01,15,41,27.60
2013,07,01,15,42,27.60
2013,07,01,15,43,27.60
2013,07,01,15,44,27.60
2013,07,01,15,45,27.60
2013,07,01,15,46,27.70
2013,07,01,15,47,27.70
2013,07,01,15,48,27.80
2013,07,01,15,49,27.70
2013,07,01,15,50,27.70
2013,07,01,15,51,27.70
2013,07,01,15,52,27.60
2013,07,01,15,53,27.60
2013,07,01,15,54,27.40
2013,07,01,15,55,27.30
2013,07,01,15,56,27.20
2013,07,01,15,57,27.10
2013,07,01,15,58,27.10
2013,07,01,15,59,27.10
2013,07,01,16,00,27.10
2013,07,01,16,01,27.00
2013,07,01,16,02,26.90
2013,07,01,16,03,26.90
2013,07,01,16,04,26.80
2013,07,01,16,05,26.80
2013,07,01,16,06,26.80
2013,07,01,16,07,26.80
2013,07,01,16,08,26.90
2013,07,01,16,09,26.90
2013,07,01,16,10,26.90
2013,07,01,16,11,26.80
2013,07,01,16,12,26.80
2013,07,01,16,13,26.80
2013,07,01,16,14,26.80
2013,07,01,16,15,26.80
2013,07,01,16,16,26.80
2013,07,01,16,17,26.80
2013,07,01,16,18,26.90
2013,07,01,16,19,26.90
2013,07,01,16,20,26.90
2013,07,01,16,21,27.00
2013,07,01,16,22,27.00
2013,07,01,16,23,26.90
2013,07,01,16,24,26.90
2013,07,01,16,25,26.90
2013,07,01,16,26,26.90
2013,07,01,16,27,26.90
2013,07,01,16,28,26.90
2013,07,01,16,29,26.90
2013,07,01,16,30,26.80
2013,07,01,16,31,26.80
2013,07,01,16,32,26.70
2013,07,01,16,33,26.70
2013,07,01,16,34,26.80
2013,07,01,16,35,26.80
2013,07,01,16,36,26.90
2013,07,01,16,37,26.90
2013,07,01,16,38,27.00
2013,07,01,16,39,27.00
2013,07,01,16,40,27.10
2013,07,01,16,41,27.10
2013,07,01,16,42,27.20
2013,07,01,16,43,27.30
2013,07,01,16,44,27.30
2013,07,01,16,45,27.30
2013,07,01,16,46,27.40
2013,07,01,16,47,27.40
2013,07,01,16,48,27.30
2013,07,01,16,49,27.30
2013,07,01,16,50,27.30
2013,07,01,16,51,27.30
2013,07,01,16,52,27.20
2013,07,01,16,53,27.20
2013,07,01,16,54,27.20
2013,07,01,16,55,27.20
2013,07,01,16,56,27.20
2013,07,01,16,57,27.20
2013,07,01,16,58,27.20
2013,07,01,16,59,27.20
2013,07,01,17,00,27.20
2013,07,01,17,01,27.20
2013,07,01,17,02,27.20
2013,07,01,17,03,27.20
2013,07,01,17,04,27.20
2013,07,01,17,05,27.30
2013,07,01,17,06,27.30
2013,07,01,17,07,27.30
2013,07,01,17,08,27.30
2013,07,01,17,09,27.40
2013,07,01,17,10,27.40
2013,07,01,17,11,27.40
2013,07,01,17,12,27.40
2013,07,01,17,13,27.40
2013,07,01,17,14,27.50
2013,07,01,17,15,27.50
2013,07,01,17,16,27.60
2013,07,01,17,17,27.60
2013,07,01,17,18,27.60
2013,07,01,17,19,27.60
2013,07,01,17,20,27.60
2013,07,01,17,21,27.60
2013,07,01,17,22,27.60
2013,07,01,17,23,27.60
2013,07,01,17,24,27.60
2013,07,01,17,25,27.60
2013,07,01,17,26,27.50
2013,07,01,17,27,27.50
2013,07,01,17,28,27.50
2013,07,01,17,29,27.50
2013,07,01,17,30,27.60
2013,07,01,17,31,27.60
2013,07,01,17,32,27.60
2013,07,01,17,33,27.60
2013,07,01,17,34,27.70
2013,07,01,17,35,27.60
2013,07,01,17,36,27.60
2013,07,01,17,37,27.70
2013,07,01,17,38,27.70
2013,07,01,17,39,27.70
2013,07,01,17,40,27.60
2013,07,01,17,41,27.60
2013,07,01,17,42,27.50
2013,07,01,17,43,27.40
2013,07,01,17,44,27.30
2013,07,01,17,45,27.10
2013,07,01,17,46,27.00
2013,07,01,17,47,26.80
2013,07,01,17,48,26.70
2013,07,01,17,49,26.60
2013,07,01,17,50,26.50
2013,07,01,17,51,26.40
2013,07,01,17,52,26.30
2013,07,01,17,53,26.20
2013,07,01,17,54,26.20
2013,07,01,17,55,26.20
2013,07,01,17,56,26.30
2013,07,01,17,57,26.30
2013,07,01,17,58,26.30
2013,07,01,17,59,26.30
2013,07,01,18,00,26.40
2013,07,01,18,01,26.50
2013,07,01,18,02,26.60
2013,07,01,18,03,26.70
2013,07,01,18,04,26.80
2013,07,01,18,05,26.80
2013,07,01,18,06,26.80
2013,07,01,18,07,26.80
2013,07,01,18,08,26.80
2013,07,01,18,09,26.70
2013,07,01,18,10,26.70
2013,07,01,18,11,26.70
2013,07,01,18,12,26.70
2013,07,01,18,13,26.80
2013,07,01,18,14,26.80
2013,07,01,18,15,26.70
2013,07,01,18,16,26.70
2013,07,01,18,17,26.70
2013,07,01,18,18,26.60
2013,07,01,18,19,26.60
2013,07,01,18,20,26.50
2013,07,01,18,21,26.40
2013,07,01,18,22,26.40
2013,07,01,18,23,26.20
2013,07,01,18,24,26.20
2013,07,01,18,25,26.10
2013,07,01,18,26,25.90
2013,07,01,18,27,25.90
2013,07,01,18,28,25.80
2013,07,01,18,29,25.70
2013,07,01,18,30,25.60
2013,07,01,18,31,25.60
2013,07,01,18,32,25.50
2013,07,01,18,33,25.40
2013,07,01,18,34,25.40
2013,07,01,18,35,25.30
2013,07,01,18,36,25.30
2013,07,01,18,37,25.30
2013,07,01,18,38,25.30
2013,07,01,18,39,25.30
2013,07,01,18,40,25.30
2013,07,01,18,41,25.30
2013,07,01,18,42,25.40
2013,07,01,18,43,25.40
2013,07,01,18,44,25.40
2013,07,01,18,45,25.40
2013,07,01,18,46,25.50
2013,07,01,18,47,25.50
2013,07,01,18,48,25.40
2013,07,01,18,49,25.40
2013,07,01,18,50,25.40
2013,07,01,18,51,25.30
2013,07,01,18,52,25.30
2013,07,01,18,53,25.20
2013,07,01,18,54,25.20
2013,07,01,18,55,25.20
2013,07,01,18,56,25.10
2013,07,01,18,57,25.10
2013,07,01,18,58,24.90
2013,07,01,18,59,24.90
2013,07,01,19,00,24.80
2013,07,01,19,01,24.80
2013,07,01,19,02,24.80
2013,07,01,19,03,24.80
2013,07,01,19,04,24.80
2013,07,01,19,05,24.80
2013,07,01,19,06,24.80
2013,07,01,19,07,24.90
2013,07,01,19,08,24.90
2013,07,01,19,09,25.00
2013,07,01,19,10,25.10
2013,07,01,19,11,25.10
2013,07,01,19,12,25.10
2013,07,01,19,13,25.00
2013,07,01,19,14,25.00
2013,07,01,19,15,24.90
2013,07,01,19,16,24.90
2013,07,01,19,17,24.80
2013,07,01,19,18,24.80
2013,07,01,19,19,24.80
2013,07,01,19,20,24.80
2013,07,01,19,21,24.80
2013,07,01,19,22,24.80
2013,07,01,19,23,24.80
2013,07,01,19,24,24.80
2013,07,01,19,25,24.80
2013,07,01,19,26,24.80
2013,07,01,19,27,24.80
2013,07,01,19,28,24.90
2013,07,01,19,29,24.90
2013,07,01,19,30,24.90
2013,07,01,19,31,24.90
2013,07,01,19,32,24.90
2013,07,01,19,33,24.90
2013,07,01,19,34,24.90
2013,07,01,19,35,24.90
2013,07,01,19,36,24.90
2013,07,01,19,37,24.90
2013,07,01,19,38,24.80
2013,07,01,19,39,24.80
2013,07,01,19,40,24.80
2013,07,01,19,41,24.80
2013,07,01,19,42,24.70
2013,07,01,19,43,24.60
2013,07,01,19,44,24.60
2013,07,01,19,45,24.50
2013,07,01,19,46,24.50
2013,07,01,19,47,24.50
2013,07,01,19,48,24.50
2013,07,01,19,49,24.60
2013,07,01,19,50,24.60
2013,07,01,19,51,24.60
2013,07,01,19,52,24.60